Flag for India Weather past 2 weeks in Vellore, Tamil Nadu, India

Now
70 °F

Fog.


Feels Like: 70 °F
Forecast: 61 / 86 °F
Wind: 2 mph from North

Location: Madras / Minambakkam

Current Time: Jan 25, 2015 at 9:59:17 AM

Latest Report: Jan 25, 2015 at 7:40 AM


Visibility: 2 mi

Pressure: 30.04 "Hg

Humidity: 94%

Dew point: 68 °F

Location of VelloreLocation

Historic Weather in Vellore — Graph

°F

Vellore temperature yesterday

Maximum temperature yesterday: 86 °F (at 1:40 PM)
Minimum temperature yesterday: 73 °F (at 2:40 AM)
Average temperature yesterday: 78 °F

Past Weeks' High & Low Weather Summary

 TemperatureHumidityPressure
High86 °F (Jan 23, 2:40 PM)100% (Jan 16, 4:40 AM)30.09 "Hg (Jan 16, 4:40 AM)
Low66 °F (Jan 13, 5:40 AM)40% (Jan 10, 2:40 PM)29.86 "Hg (Jan 13, 1:40 PM)
Average76 °F75%29.96 "Hg
* Reported Jan 10 7:40 AM — Jan 25 7:40 AM, Vellore, Weather by CustomWeather, © 2014

Note: Actual official high and low records may vary slightly from our data, if they occured in-between our weather recording intervals... More about our weather records

Advertising

Vellore weather history for previous 24 hours

 ConditionsComfort  
Time TempWeatherWind HumidityBarometerVisibility
7:40 AM
Jan 25
70 °FFog.2 mph94%30.04 "Hg1 mi
6:40 AM70 °FFog.No wind94%30.01 "Hg2 mi
5:40 AM70 °FFog.No wind94%29.98 "Hg3 mi
4:40 AM70 °FFog.No wind94%29.98 "Hg3 mi
3:40 AM70 °FHaze.No wind94%29.98 "Hg3 mi
2:40 AM72 °FPassing clouds.No wind94%29.98 "Hg4 mi
1:40 AM72 °FPassing clouds.No wind88%29.98 "Hg4 mi
12:40 AM73 °FPassing clouds.No wind89%30.01 "Hg4 mi
11:40 PM
Jan 24
75 °FPassing clouds.3 mph78%30.01 "Hg4 mi
10:40 PM75 °FPassing clouds.3 mph83%30.01 "Hg4 mi
9:40 PM75 °FPassing clouds.6 mph78%30.01 "Hg4 mi
8:40 PM75 °FPassing clouds.7 mph83%29.98 "Hg4 mi
7:40 PM77 °FPassing clouds.9 mph79%29.95 "Hg4 mi
6:40 PM77 °FPassing clouds.10 mph79%29.95 "Hg4 mi
5:40 PM79 °FScattered clouds.9 mph79%29.92 "Hg4 mi
4:40 PM81 °FScattered clouds.12 mph74%29.92 "Hg4 mi
3:40 PM82 °FScattered clouds.9 mph70%29.89 "Hg4 mi
2:40 PM84 °FScattered clouds.15 mph66%29.92 "Hg4 mi
1:40 PM86 °FScattered clouds.12 mph62%29.92 "Hg4 mi
12:40 PM84 °FScattered clouds.14 mph70%29.95 "Hg4 mi
10:40 AM79 °FFog.7 mph84%30.01 "Hg1 mi
9:40 AM79 °FDrizzle. Broken clouds.6 mph84%30.04 "Hg1 mi
Weather by CustomWeather, © 2014

See weather overviewHow to use our weather pages